Location: Creston
(40.9870°N, 81.8938°W)
Time: 18:33:25
(UTC+00:00)

Lacrosse 5 - Pass Details

Date: 29 October 2020
Orbit: 716 x 723 km, 57.0° (Epoch: 06 November)

Event Time Altitude Azimuth Distance (km) Brightness Sun altitude
Rises 23:07:59 0° 306° (NW) 3,122 5.9 -8.4°
Reaches altitude 10° 23:11:50 10° 335° (NNW) 2,202 4.6 -9.1°
Maximum altitude 23:14:01 13° 1° (N) 2,024 4.1 -9.5°
Drops below altitude 10° 23:16:14 10° 27° (NNE) 2,203 4.0 -10.0°
Enters shadow 23:17:47 - 42° (NE) 2,509 4.2 -10.2°
